Wind_Speed
8 6 5 5 4 3 2 2 2 2 3 3 4 3 3 3 3 3 3 4 5 6 6 5 5 6 7 7 7 8 8 8 8 8 8 8 7 7 7 7 6 6 6
9 8 7 6 5 4 3 2 2 3 3 4 4 4 3 4 3 3 3 3 4 5 5 5 5 6 6 7 7 7 8 8 8 8 8 8 8 8 8 8 8 8 7
9 9 8 7 6 5 4 3 2 3 3 3 4 4 4 4 4 3 3 3 3 4 4 5 5 6 6 7 7 7 8 8 8 8 8 9 9 9 9 9 9 9 9
10 10 9 8 7 6 5 3 3 3 3 3 3 4 4 4 4 4 4 4 4 4 4 4 5 6 6 7 7 7 7 8 8 8 9 9 9 10 10 10 10 10 10
12 11 10 8 7 7 6 5 4 4 3 3 4 4 4 4 4 4 4 4 4 4 4 5 5 6 6 7 7 7 7 8 8 8 8 9 9 9 9 10 10 10 10
13 12 10 9 8 7 7 6 5 5 4 4 4 4 4 3 3 4 3 3 3 4 4 5 5 5 6 6 6 7 7 8 8 8 8 8 9 9 10 10 10 11 11
14 13 12 10 9 9 8 7 6 6 5 5 4 4 3 3 3 4 4 3 3 3 4 4 4 4 5 6 6 7 7 7 8 9 9 9 9 9 10 10 11 12 12
15 14 13 12 11 10 9 8 7 7 6 6 5 5 4 4 4 4 4 3 3 3 3 3 4 4 5 6 6 7 7 7 8 8 9 10 10 11 11 11 12 12 12
16 15 14 13 12 11 10 9 9 8 8 7 7 6 6 5 4 4 4 4 3 4 4 4 5 6 6 7 7 7 8 8 9 10 10 10 11 12 12 12 12 13 13
17 16 15 14 13 12 12 11 10 10 9 9 9 8 7 6 6 5 5 5 5 5 6 6 7 7 8 9 9 9 9 10 11 12 12 13 13 14 14 15 15 15 15
17 17 16 16 15 14 13 12 12 11 11 11 10 9 9 8 8 7 7 7 8 8 8 9 10 10 11 11 11 11 12 13 13 14 15 16 16 17 17 18 18 18 18
17 18 17 17 16 16 15 14 14 13 13 13 12 12 11 10 10 10 11 11 11 12 12 13 13 14 14 15 15 15 16 17 17 18 18 19 19 20 21 21 21 22 22
18 17 17 18 17 17 16 16 16 15 15 14 14 14 13 13 13 14 14 15 15 15 16 16 17 17 17 18 18 19 19 20 20 21 22 22 23 23 24 24 24 25 26
18 18 18 18 19 19 18 18 17 17 17 17 16 16 16 17 17 17 18 18 19 19 19 20 20 21 22 22 22 22 23 23 24 24 25 26 27 27 28 28 28 29 29
18 19 19 19 20 20 20 19 19 19 19 19 19 19 20 20 20 20 21 21 22 22 23 23 24 24 25 25 26 26 27 27 28 28 29 30 31 31 32 32 33 33 34
18 19 20 20 20 21 21 21 21 20 20 20 20 21 22 22 22 23 24 25 25 25 26 26 26 27 27 27 28 29 30 30 30 31 32 33 34 35 35 36 36 37 38
18 19 20 21 21 21 21 21 22 22 21 22 22 23 23 24 24 25 26 27 27 28 28 29 29 29 29 30 31 32 32 33 34 35 36 36 37 38 39 39 40 41 41
18 19 19 20 20 21 21 21 21 21 22 21 22 23 24 25 26 27 27 28 29 30 30 31 31 31 32 33 34 35 36 37 37 38 39 40 41 41 42 43 44 45 45
19 20 20 20 20 21 21 21 21 22 22 22 23 23 24 25 26 26 27 28 29 31 31 32 33 33 34 35 36 38 39 40 41 41 42 43 44 45 46 47 48 49 49
19 19 19 20 21 21 21 22 22 23 24 24 24 25 25 26 26 27 27 28 29 30 31 33 34 35 37 38 39 40 42 43 43 44 45 46 47 49 50 51 51 52 53
19 19 19 20 21 22 22 23 24 25 25 26 26 26 26 27 28 29 30 31 31 32 33 34 35 37 39 40 41 42 43 44 45 46 48 49 51 52 53 54 54 55 56
21 21 21 21 22 23 24 25 26 26 27 27 27 27 27 27 28 29 30 30 31 33 34 35 37 39 40 40 41 43 45 46 48 49 51 53 54 55 56 58 58 59 60
21 22 22 22 23 24 25 26 27 26 26 27 27 27 27 27 27 29 30 31 33 34 36 37 38 40 42 43 44 46 48 49 51 53 54 56 57 58 59 61 61 62 63
22 23 22 22 22 23 24 25 25 25 26 27 27 28 28 29 30 31 32 33 35 36 37 39 41 43 45 45 47 49 51 53 55 56 56 57 59 60 61 63 64 65 66
23 23 23 23 23 23 24 25 25 25 26 27 28 29 30 32 32 33 34 35 37 38 40 42 43 45 46 49 51 52 54 56 57 58 59 61 62 63 64 65 67 67 68
24 24 25 25 25 25 25 26 27 27 27 27 29 30 32 32 33 35 36 38 39 40 42 44 46 48 49 51 52 54 55 57 58 60 61 62 63 64 65 65 67 67 68
Wind_Direction
209 209 207 206 202 192 185 187 193 201 199 190 193 200 201 201 201 203 202 203 211 215 216 224 232 237 239 235 236 236 240 241 242 245 248 248 248 251 256 258 258 263 268
211 210 207 205 201 194 190 186 192 201 207 205 199 200 211 216 210 210 208 206 213 216 222 229 235 239 243 243 241 241 241 240 244 249 253 254 256 257 260 261 262 263 265
211 209 205 205 202 197 194 189 182 190 191 192 195 200 206 208 206 209 210 213 218 224 231 242 250 250 249 251 250 249 247 244 247 250 255 259 262 264 264 265 266 266 265
212 208 207 206 204 200 198 191 180 184 187 186 185 186 191 198 210 208 209 216 224 232 242 250 250 250 252 254 257 260 262 261 253 254 258 261 263 264 266 267 269 270 268
213 209 207 205 206 204 200 194 187 189 190 184 180 179 186 194 197 206 219 222 227 236 248 258 260 256 254 254 258 263 266 266 263 263 264 267 270 270 271 272 272 272 271
214 210 209 208 209 206 203 200 198 201 201 196 190 187 191 195 196 206 219 223 235 243 247 256 260 259 258 262 267 270 271 267 266 268 270 272 276 277 276 275 273 274 275
216 214 214 215 214 211 209 207 206 208 208 207 204 200 200 203 212 221 229 236 241 246 251 255 255 258 261 262 266 268 272 271 270 269 267 271 277 280 282 281 278 276 277
218 216 216 217 214 213 213 212 210 210 212 212 211 210 210 215 221 226 232 240 244 251 256 256 258 263 265 264 266 270 276 279 277 275 273 273 276 280 283 283 283 283 282
219 219 219 220 217 217 216 215 216 215 215 214 214 215 217 222 223 226 232 237 247 258 264 267 267 268 269 273 275 276 278 278 279 280 279 278 278 279 282 284 285 284 284
220 220 221 220 218 217 218 220 220 219 218 218 219 219 221 225 225 231 240 247 258 267 271 273 274 274 274 275 277 275 277 279 280 279 279 280 280 282 282 283 283 283 282
221 223 222 223 221 220 221 223 224 223 223 222 223 224 228 233 237 243 250 256 262 267 270 273 273 273 274 274 275 276 278 279 279 280 281 280 280 280 280 281 282 282 282
223 225 225 225 223 223 224 226 227 227 228 230 232 234 236 241 246 251 256 261 264 267 269 272 273 274 274 273 274 276 278 279 279 279 280 281 281 281 280 281 280 280 281
224 225 226 227 226 227 228 228 230 231 233 237 239 241 244 247 252 256 260 263 265 267 269 271 273 274 274 274 275 276 277 278 280 281 281 280 280 280 280 281 281 280 280
228 228 228 229 229 229 231 233 233 234 238 241 243 248 250 252 255 259 262 265 267 269 271 272 273 274 275 275 275 276 277 278 279 280 280 280 280 279 280 280 280 280 280
230 232 232 232 233 233 234 237 237 238 241 245 247 251 253 255 258 261 264 266 269 271 272 273 274 275 275 276 276 277 278 279 279 279 280 280 279 279 279 280 280 280 280
233 233 231 232 234 236 237 238 239 242 246 247 251 254 256 258 261 265 267 268 269 270 273 275 276 276 276 276 278 278 279 280 280 281 281 281 280 280 280 279 279 279 280
238 236 232 233 236 238 239 241 243 246 250 252 254 257 259 262 265 267 269 270 270 271 274 276 276 277 276 277 279 279 280 281 281 281 281 281 281 281 280 280 280 280 280
235 235 233 235 238 240 242 244 246 248 252 254 258 260 262 265 268 269 270 271 272 273 274 275 276 277 277 278 279 280 281 283 282 282 281 281 281 281 281 281 281 280 280
238 238 237 240 242 242 244 246 248 250 253 257 261 264 266 269 269 271 272 273 274 274 274 275 276 277 278 279 280 282 283 283 284 283 282 282 282 282 282 282 282 281 280
242 243 244 244 243 245 246 247 249 252 256 260 262 264 267 268 270 271 272 274 275 276 276 277 277 278 280 280 281 282 283 283 284 284 283 283 283 282 282 282 282 282 281
245 245 247 249 247 248 250 251 253 255 259 262 263 265 269 270 271 272 273 274 276 277 279 279 280 281 282 282 282 283 284 285 285 284 284 284 284 284 283 283 282 282 282
250 250 249 251 252 252 252 252 255 258 260 262 265 266 269 272 273 273 274 276 278 280 280 281 282 283 284 284 284 286 287 286 286 286 286 286 286 286 285 285 284 283 283
253 254 256 254 255 256 255 256 258 260 263 265 267 267 269 271 275 276 278 280 282 283 284 285 286 286 287 287 287 288 288 289 289 288 288 288 288 287 286 285 285 284 284
253 253 255 255 254 256 256 258 261 266 268 268 269 270 273 277 279 280 282 283 285 287 287 288 288 289 290 289 290 291 290 290 291 290 290 289 288 288 287 287 286 285 284
254 253 257 258 259 258 259 262 266 269 270 271 272 274 278 279 281 283 286 288 289 290 290 290 290 290 290 290 291 292 292 292 292 292 291 291 290 289 288 288 287 286 286
256 257 259 261 260 261 263 266 269 271 274 275 276 278 280 282 284 287 289 290 290 291 292 292 292 292 292 293 294 294 294 294 294 293 293 292 292 291 290 290 289 289 288
Height
5897 5897 5898 5898 5898 5898 5899 5899 5899 5899 5900 5900 5901 5901 5902 5902 5902 5902 5903 5903 5904 5904 5905 5905 5906 5906 5907 5907 5908 5908 5909 5910 5910 5911 5911 5912 5912 5912 5912 5912 5912 5913 5913
5895 5896 5897 5897 5898 5898 5898 5898 5899 5899 5899 5900 5900 5901 5901 5901 5902 5902 5903 5903 5903 5904 5904 5905 5905 5905 5906 5906 5906 5907 5908 5908 5909 5910 5910 5910 5910 5910 5911 5911 5911 5911 5911
5894 5895 5896 5896 5897 5897 5898 5898 5898 5899 5899 5899 5900 5900 5901 5901 5902 5902 5902 5903 5903 5903 5904 5904 5904 5905 5905 5905 5906 5906 5906 5907 5907 5908 5908 5909 5909 5909 5909 5909 5909 5909 5909
5893 5894 5895 5896 5896 5897 5897 5897 5898 5899 5899 5899 5900 5900 5900 5901 5901 5902 5902 5902 5902 5903 5903 5903 5904 5904 5904 5904 5905 5905 5905 5906 5906 5906 5907 5907 5907 5907 5907 5907 5907 5907 5907
5891 5893 5894 5895 5895 5896 5896 5897 5898 5898 5899 5899 5899 5900 5900 5900 5901 5901 5901 5902 5902 5902 5902 5903 5903 5903 5903 5903 5903 5904 5904 5904 5904 5905 5905 5905 5905 5905 5905 5905 5905 5905 5905
5889 5891 5892 5893 5894 5895 5896 5897 5897 5898 5898 5899 5899 5900 5900 5900 5901 5901 5901 5901 5901 5901 5902 5902 5902 5902 5902 5902 5902 5902 5902 5903 5903 5903 5903 5903 5903 5903 5903 5903 5903 5903 5903
5887 5889 5891 5892 5893 5894 5895 5896 5897 5897 5898 5898 5899 5900 5900 5900 5900 5901 5901 5901 5901 5901 5901 5901 5901 5901 5901 5901 5901 5901 5901 5901 5901 5901 5901 5901 5901 5901 5901 5900 5900 5900 5900
5885 5887 5889 5890 5892 5893 5894 5895 5896 5896 5897 5898 5899 5899 5900 5900 5900 5900 5900 5901 5901 5900 5900 5901 5900 5900 5900 5900 5900 5900 5900 5900 5899 5899 5899 5899 5899 5899 5898 5898 5898 5897 5897
5883 5885 5887 5888 5890 5891 5892 5893 5894 5895 5896 5897 5898 5899 5899 5900 5900 5900 5900 5900 5900 5900 5900 5900 5900 5899 5899 5899 5899 5899 5898 5898 5898 5897 5897 5897 5897 5896 5896 5895 5895 5894 5894
5880 5883 5884 5886 5888 5889 5890 5892 5893 5894 5895 5896 5896 5897 5898 5899 5899 5899 5900 5899 5899 5899 5899 5899 5899 5898 5898 5897 5897 5897 5897 5896 5896 5895 5895 5894 5894 5894 5893 5892 5892 5891 5890
5878 5880 5882 5884 5885 5887 5888 5890 5891 5892 5893 5894 5895 5896 5897 5897 5898 5898 5898 5898 5898 5898 5898 5897 5897 5897 5896 5895 5895 5894 5894 5894 5893 5892 5892 5891 5891 5890 5889 5889 5888 5887 5887
5875 5877 5879 5881 5883 5884 5886 5887 5889 5890 5891 5892 5893 5894 5894 5895 5896 5896 5896 5896 5896 5896 5895 5895 5894 5894 5893 5893 5892 5891 5891 5890 5890 5889 5888 5887 5887 5886 5885 5884 5884 5883 5882
5872 5874 5876 5878 5880 5881 5883 5884 5886 5887 5888 5889 5890 5891 5892 5892 5893 5893 5893 5893 5893 5892 5892 5892 5891 5890 5890 5889 5888 5887 5887 5886 5885 5884 5884 5883 5882 5881 5880 5879 5879 5878 5877
5869 5871 5872 5874 5876 5878 5880 5881 5882 5884 5885 5886 5886 5887 5888 5888 5889 5889 5889 5889 5889 5888 5888 5887 5887 5886 5885 5884 5883 5883 5882 5881 5880 5879 5878 5877 5876 5875 5874 5873 5872 5871 5870
5865 5867 5869 5871 5873 5874 5876 5877 5879 5880 5881 5882 5883 5883 5884 5884 5884 5885 5885 5885 5885 5884 5883 5882 5881 5880 5879 5879 5878 5877 5876 5875 5873 5872 5871 5870 5869 5868 5867 5865 5864 5863 5862
5861 5863 5865 5867 5868 5870 5872 5873 5874 5876 5877 5877 5878 5879 5879 5879 5879 5879 5879 5879 5879 5878 5877 5876 5875 5874 5873 5872 5871 5869 5868 5867 5866 5865 5864 5862 5861 5859 5858 5857 5855 5854 5852
5858 5859 5861 5863 5864 5866 5867 5869 5870 5871 5872 5873 5873 5873 5874 5874 5874 5873 5873 5873 5872 5872 5871 5870 5868 5867 5866 5865 5864 5862 5861 5859 5858 5856 5855 5853 5852 5850 5848 5847 5845 5843 5842
5853 5855 5857 5859 5860 5862 5863 5864 5865 5866 5867 5868 5868 5868 5868 5868 5868 5867 5867 5866 5866 5865 5864 5862 5861 5860 5858 5857 5855 5854 5852 5850 5849 5848 5845 5843 5842 5840 5838 5836 5834 5832 5830
5850 5851 5853 5854 5856 5857 5858 5859 5860 5861 5862 5862 5862 5862 5862 5862 5861 5861 5860 5859 5858 5857 5856 5855 5853 5852 5850 5849 5847 5845 5843 5841 5838 5837 5835 5833 5831 5828 5826 5824 5822 5820 5818
5846 5848 5849 5850 5852 5852 5853 5854 5855 5856 5856 5856 5856 5856 5856 5855 5855 5854 5853 5852 5851 5850 5848 5847 5845 5844 5842 5840 5838 5835 5833 5831 5828 5826 5824 5821 5819 5816 5814 5811 5809 5806 5804
5842 5843 5844 5846 5846 5847 5848 5849 5850 5850 5850 5850 5850 5850 5849 5849 5848 5847 5846 5845 5844 5842 5841 5839 5837 5835 5833 5831 5828 5825 5823 5820 5817 5814 5811 5808 5805 5802 5800 5797 5794 5791 5788
5838 5839 5840 5841 5841 5842 5842 5843 5843 5844 5844 5843 5843 5842 5842 5841 5840 5839 5838 5837 5836 5834 5832 5830 5828 5826 5823 5821 5818 5815 5812 5809 5806 5803 5799 5795 5791 5787 5784 5780 5778 5775 5771
5833 5834 5835 5836 5836 5836 5837 5837 5837 5837 5837 5837 5836 5835 5835 5834 5833 5832 5830 5829 5827 5825 5823 5821 5818 5815 5813 5810 5807 5803 5799 5796 5792 5788 5784 5780 5775 5771 5767 5763 5760 5756 5752
5827 5828 5829 5830 5830 5830 5831 5831 5831 5830 5830 5830 5829 5828 5827 5826 5825 5824 5822 5820 5818 5816 5814 5811 5808 5805 5801 5798 5794 5790 5786 5782 5777 5773 5769 5764 5759 5754 5749 5744 5740 5736 5732
5822 5823 5823 5824 5824 5824 5824 5824 5824 5823 5823 5822 5822 5821 5820 5819 5817 5815 5813 5811 5809 5806 5803 5800 5796 5793 5789 5785 5781 5776 5772 5767 5762 5756 5751 5746 5741 5736 5730 5725 5719 5715 5711
5816 5817 5818 5818 5818 5818 5818 5818 5818 5817 5816 5815 5814 5813 5812 5810 5808 5806 5804 5801 5798 5795 5792 5788 5785 5781 5776 5771 5767 5762 5756 5751 5745 5739 5733 5728 5721 5716 5712 5705 5699 5693 5688